Coffeyville, KS

4:39 PM CST on February 19, 2018 (GMT -0600)
Coffeyville Municipal

Weather History for KCFV - December, 2012

Change the Weather History Date:

Saturday, December 29, 2012

  Actual Average Record
Temperature  
Mean Temperature 28 °F -  
Max Temperature 41 °F 43 °F 68 °F (1999)
Min Temperature 14 °F 23 °F 12 °F (2000)
Degree Days  
Heating Degree Days 38    
Moisture  
Dew Point 13 °F    
Average Humidity 60    
Maximum Humidity 81    
Minimum Humidity 35    
Precipitation  
Precipitation 0.00 in - - ()
Sea Level Pressure  
Sea Level Pressure 30.34 in    
Wind  
Wind Speed 8 mph (West)    
Max Wind Speed 12 mph    
Max Gust Speed -    
Visibility 10 miles    
Events      
Averages and records for this station are not official NWS values.
T = Trace of Precipitation, MM = Missing Value Source: NWS Daily Summary

Daily Weather History Graph

Daily Weather History Graph

Search for Another Location

Airport or City:

Trip Planner

Search our weather history database for the weather conditions in past years. The results will help you decide how hot, cold, wet, or windy it might be!

Date:

Astronomy

Dec. 29, 2012 Rise Set
Actual Time 7:35 AM CST 5:14 PM CST
Civil Twilight 7:06 AM CST 5:43 PM CST
Nautical Twilight 6:33 AM CST 6:15 PM CST
Astronomical Twilight 6:02 AM CST 6:47 PM CST
Moon 6:45 PM CST (12/29) 8:11 AM CST (12/29)
Length of Visible Light 10h 36m
Length of Day
9h 38m
Full, 98% of the Moon is Illuminated
Dec 29
Full
Jan 4
Last Quarter
Jan 11
New
Jan 18
First Quarter
Jan 26
Full

Hourly Weather History & Observations

Time (CST) Temp. Windchill Dew Point Humidity Pressure Visibility Wind Dir Wind Speed Gust Speed Precip Events Conditions
12:52 AM 21.0 °F 9.3 °F 12.0 °F 68% 30.19 in 10.0 mi NW 11.5 mph - N/A   Clear
1:52 AM 19.9 °F 9.3 °F 12.0 °F 71% 30.20 in 10.0 mi NNW 9.2 mph - N/A   Clear
2:52 AM 19.0 °F 7.5 °F 12.0 °F 74% 30.22 in 10.0 mi NNW 10.4 mph - N/A   Clear
3:52 AM 18.0 °F 8.7 °F 12.0 °F 78% 30.24 in 9.0 mi NW 6.9 mph - N/A   Clear
4:52 AM 17.1 °F 7.6 °F 10.9 °F 77% 30.26 in 9.0 mi WNW 6.9 mph - N/A   Clear
5:52 AM 16.0 °F 6.3 °F 10.9 °F 81% 30.29 in 8.0 mi WNW 6.9 mph - N/A   Clear
6:52 AM 15.1 °F - 10.0 °F 80% 30.32 in 9.0 mi Calm Calm - N/A   Clear
7:52 AM 14.0 °F 6.5 °F 9.0 °F 80% 30.35 in 7.0 mi West 4.6 mph - N/A   Clear
8:52 AM 19.0 °F 10.0 °F 12.0 °F 74% 30.38 in 8.0 mi WNW 6.9 mph - N/A   Clear
9:52 AM 21.9 °F 11.7 °F 12.9 °F 68% 30.40 in 10.0 mi WNW 9.2 mph - N/A   Clear
10:52 AM 27.0 °F 18.7 °F 12.9 °F 56% 30.41 in 10.0 mi WNW 8.1 mph - N/A   Clear
11:52 AM 30.0 °F 23.2 °F 12.9 °F 49% 30.38 in 10.0 mi NNW 6.9 mph - N/A   Clear
12:52 PM 35.1 °F 28.6 °F 12.9 °F 40% 30.35 in 10.0 mi West 8.1 mph - N/A   Clear
1:52 PM 37.9 °F 34.4 °F 14.0 °F 38% 30.34 in 10.0 mi West 4.6 mph - N/A   Clear
2:52 PM 39.9 °F 36.7 °F 15.1 °F 36% 30.35 in 10.0 mi Variable 4.6 mph - N/A   Clear
3:52 PM 41.0 °F 36.4 °F 15.1 °F 35% 30.36 in 10.0 mi WSW 6.9 mph - N/A   Clear
4:52 PM 37.9 °F 35.5 °F 15.1 °F 39% 30.36 in 10.0 mi SSW 3.5 mph - N/A   Clear
5:52 PM 34.0 °F 29.8 °F 15.1 °F 46% 30.36 in 10.0 mi South 4.6 mph - N/A   Clear
6:52 PM 28.9 °F 21.9 °F 14.0 °F 54% 30.38 in 10.0 mi South 6.9 mph - N/A   Clear
7:52 PM 30.0 °F 23.2 °F 15.1 °F 54% 30.38 in 10.0 mi South 6.9 mph - N/A   Clear
8:52 PM 28.0 °F 20.8 °F 15.1 °F 58% 30.38 in 10.0 mi South 6.9 mph - N/A   Clear
9:52 PM 27.0 °F 20.5 °F 15.1 °F 61% 30.38 in 10.0 mi South 5.8 mph - N/A   Clear
10:52 PM 26.1 °F 18.4 °F 15.1 °F 63% 30.40 in 10.0 mi South 6.9 mph - N/A   Clear
11:52 PM 26.1 °F 19.4 °F 15.1 °F 63% 30.42 in 10.0 mi South 5.8 mph - N/A   Clear